Volver al catálogo

STARLINK-35415

ActivoComunicacionesVLEO
NORAD 65885·PAYLOAD·🇺🇸 United States

Lanzado Oct 7, 2025 desde Cape Canaveral Space Force Station

Loading…

Próximos Pases (próximas 24 horas)

TLE

ActualizadoSource: CelesTrak SupGP

Época: Sep 14, 2026, 21:30 UTC

1 65885C 25224D   26257.89631944  .00023274  00000+0  68742-3 0  2577
2 65885  53.1577 208.0595 0001573  95.6841 328.1064 15.34388241    14

Sigue STARLINK-35415 en tiempo real con AllMySat

Download on the App Store